Regional Weather Roundup
Issued by NWS

Home | Current Version | Previous Version | Text Only | Print | Product List | Glossary On
Versions: 1 2 3 4 5 6 7 8 9 10 11 12 13 14 15 16 17 18 19 20 21 22 23 24 25 26 27 28 29 30 31 32 33 34 35 36 37 38 39 40 41 42 43 44 45 46 47 48 49 50
000
ASUS43 KMPX 221401
RWRMN
WEATHER ROUNDUP FOR MINNESOTA
NATIONAL WEATHER SERVICE TWIN CITIES/CHANHASSEN MN
900 AM CDT TUE AUG 22 2017


NOTE: "FAIR" INDICATES FEW OR NO CLOUDS BELOW 12,000 FEET WITH NO
SIGNIFICANT WEATHER AND/OR OBSTRUCTIONS TO VISIBILITY. N/A MEANS
CURRENT SKY AND/OR WEATHER CONDITIONS ARE NOT AVAILABLE.

MNZ060>063-068>070-221500-
   Twin Cities Metro

CITY           SKY/WX    TMP DP  RH WIND       PRES   REMARKS
TWIN CITIES    SUNNY     63  54  72 NW14      30.03R
ST PAUL        SUNNY     63  55  75 NW13      30.02R
CRYSTAL        SUNNY     62  51  67 NW14      30.02R
BLAINE         SUNNY     63  57  82 NW13G20   30.02R
LAKEVILLE      SUNNY     63  55  77 NW12      30.03R
EDEN PRAIRIE   SUNNY     64  54  69 NW13      30.02R
SOUTH ST PAUL  SUNNY     64  55  74 W6        30.02R
LAKE ELMO      FAIR      63  55  77 NW10      30.02R
$$
MNZ001>005-007-008-013>017-022>024-027-028-221500-
   Northwest Minnesota

CITY           SKY/WX    TMP DP  RH WIND       PRES   REMARKS
BEMIDJI        SUNNY     55  50  82 NW10      30.01R
HALLOCK        CLOUDY    59  48  67 W8        30.02R
ROSEAU         SUNNY     54  48  82 W12       29.98S
WARROAD        SUNNY     54  50  87 W10       29.96S
CROOKSTON      SUNNY     57  52  82 W8        30.05S
FOSSTON        SUNNY     52  48  87 NW8       30.04S
DETROIT LAKES  SUNNY     55  46  71 NW13      30.07R
MOORHEAD       SUNNY     57  48  72 NW12      30.08R
PARK RAPIDS    SUNNY     58  51  78 W13       30.02S
MAHNOMEN       FAIR      54  49  83 NW7       30.05R
$$
MNZ006-009>011-018-025>026-221500-
   North Central Minnesota

CITY           SKY/WX    TMP DP  RH WIND       PRES   REMARKS
BAUDETTE       PTSUNNY   55  52  89 W8        29.94R
FLAG ISLAND    MOSUNNY   57  52  82 W9        29.92R
INTL FALLS     PTSUNNY   54  52  93 W6        29.91S
WASKISH        CLOUDY    57  52  82 NW12      29.97R
BIG FORK       SUNNY     57  54  88 W3        29.95R
LONGVILLE      SUNNY     59  52  77 W7        29.99R
GRAND RAPIDS   SUNNY     59  53  80 W10       29.98S
CRANE LAKE     SUNNY     54  52  94 W5        29.91S
ORR            MOSUNNY   55  50  82 W6        29.90S
COOK           MOSUNNY   55  52  88 W9        29.93S
WALKER         FAIR      56  49  77 W9        30.01R
$$
MNZ012-019>021-037-221500-
   Northeast Minnesota

CITY           SKY/WX    TMP DP  RH WIND       PRES   REMARKS
DULUTH         MOSUNNY   57  53  86 W10       29.93F
ELY            PTSUNNY   57  52  82 W8        29.89F
HIBBING        SUNNY     57  52  83 W7        29.93S
EVELETH        SUNNY     58  50  77 W9        29.93S
DULUTH HARBOR  SUNNY     61  55  82 W10       29.94S
TWO HARBORS    SUNNY     63  55  77 W7        29.89S
SILVER BAY     SUNNY     61  54  77 W5        29.88R
GRAND MARAIS     N/A     62  53  72 W8G17     29.82S
G MARAIS ARPRT PTSUNNY   55  46  71 W10G20    29.84S
$$
MNZ029>031-032-039>041-046>048-054>057-064-221500-
   West Central Minnesota

CITY           SKY/WX    TMP DP  RH WIND       PRES   REMARKS
FERGUS FALLS   SUNNY     55  54  94 NW8       30.09R
WHEATON        SUNNY     59  48  67 W9        30.12S
MORRIS         SUNNY     59  52  77 W10       30.10R
ALEXANDRIA     SUNNY     59  52  77 W9        30.09R
ELBOW LAKE     FAIR      55  51  86 NW7       30.10R
WADENA         SUNNY     57  52  82 W10       30.04S
GLENWOOD       SUNNY     59  54  82 W8        30.09R
APPLETON       SUNNY     61  54  77 W10       30.11R
BENSON         SUNNY     61  54  77 NW9       30.12R
ORTONVILLE     SUNNY     61  48  63 MISG      30.12R
MADISON        SUNNY     63  54  72 W10       30.12R
WILLMAR        FAIR      57  55  94 NW7       30.11R
$$
MNZ033>034-036-042>043-049>051-058-059-221500-
   Central Minnesota

CITY           SKY/WX    TMP DP  RH WIND       PRES   REMARKS
ST CLOUD       SUNNY     61  54  77 NW10      30.04R
SAUK CENTRE    FAIR      59  53  81 W8        30.07R
PAYNESVILLE    SUNNY     59  55  88 W8        30.08R
AITKIN         SUNNY     59  54  82 W7        29.98S
PINE RIVER     SUNNY     55  48  76 W5        30.04F
BRAINERD       SUNNY     59  51  75 W10       30.02S
STAPLES        SUNNY     57  54  88 W9        30.04R
LONG PRAIRIE   FAIR      59  52  77 SW8       30.07R
LITTLE FALLS   SUNNY     59  50  72 W6        30.04S
LITCHFIELD     SUNNY     63  55  77 NW8       30.08R
BUFFALO        SUNNY     61  52  72 W6        30.06R
MAPLE LAKE     SUNNY     62  55  78 W8        30.06R
HUTCHINSON     SUNNY     60  56  87 W8        30.09R
$$
MNZ037-044-045-052-053-221500-
   East Central Minnesota

CITY           SKY/WX    TMP DP  RH WIND       PRES   REMARKS
PRINCETON      SUNNY     63  54  72 W8        30.03R
MORA           SUNNY     59  52  77 NW8       30.02R
CAMBRIDGE      SUNNY     63  52  67 NW9       30.02R
RUSH CITY      SUNNY     62  55  78 NW3       30.01R
MOOSE LAKE     SUNNY     59  54  82 W8        29.96S
HINCKLEY       FAIR      61  54  77 NW8       29.99S
CLOQUET        SUNNY     57  52  82 W8        29.95S
MCGREGOR       SUNNY     59  54  82 W8        29.99S
$$
MNZ071>073-080-081-089-090-097-098-221500-
   Southwest Minnesota

CITY           SKY/WX    TMP DP  RH WIND       PRES   REMARKS
MONTEVIDEO     SUNNY     63  63 100 NW6       30.12R
GRANITE FALLS  SUNNY     60  56  85 W8        30.14R
CANBY          SUNNY     63  52  68 CALM      30.14S
MARSHALL       SUNNY     60  53  77 NW9       30.13S
REDWOOD FALLS  SUNNY     60  53  77 NW10      30.10R
OLIVIA         SUNNY     57  54  88 NW9       30.09S
PIPESTONE      SUNNY     59  54  82 NW7       30.15S
WINDOM         SUNNY     61  52  72 NW12      30.11S
WORTHINGTON    SUNNY     60  50  69 NW12      30.14R
JACKSON        SUNNY     59  52  77 NW8       30.12R
TRACY          SUNNY     61  55  80 NW7       30.13R
SLAYTON        SUNNY     56  49  74 NW10      30.14S
$$
MNZ065>067-074>077-082>085-091>093-221500-
   South Central Minnesota

CITY           SKY/WX    TMP DP  RH WIND       PRES   REMARKS
MANKATO        SUNNY     60  55  83 NW14      30.08R
NEW ULM        SUNNY     61  54  77 NW10      30.09R
ST JAMES       SUNNY     61  55  82 W9        30.11R
FAIRMONT       SUNNY     60  55  83 NW14      30.10R
GLENCOE        SUNNY     61  57  87 NW8       30.07R
FARIBAULT      SUNNY     63  55  77 NW10      30.04R
OWATONNA       SUNNY     61  57  88 NW13      30.04R
WASECA         SUNNY     59  54  82 NW10G16   30.07R
ALBERT LEA     MOSUNNY   63  59  88 NW6       30.06R
$$
MNZ078>079-086>088-094>096-221500-
   Southeast Minnesota

CITY           SKY/WX    TMP DP  RH WIND       PRES   REMARKS
ROCHESTER      PTSUNNY   62  58  86 NW14G20   30.02R
RED WING       SUNNY     64  54  68 NW6G18    29.99R
STANTON        SUNNY     63  56  79 NW14      30.01R
DODGE CENTER   MOSUNNY   61  55  82 NW13      30.03R
WINONA         MOSUNNY   66  59  77 NW13G18   29.97R
AUSTIN         SUNNY     63  55  77 NW13      30.03R
PRESTON        PTSUNNY   62  57  84 NW13G20   30.01R
$$
ABBREVIATIONS USED IN REMARKS
   TC - TEMPERATURES IN CELSIUS
  WCI - WIND CHILL INDEX
   HX - HEAT INDEX
  VSB - VISIBILITY
$$




USA.gov is the U.S. government's official web portal to all federal, state and local government web resources and services.